This is the latest recevied weather packets stored in our database for station/object VE1DX. If no packets are shown the sender has not sent any weather packets the latest 10 day(s).
| Time | Temp. | Humidity | Pressure | Rain* | Wind** | Luminosity | Snow |
|---|---|---|---|---|---|---|---|
| 1788538517 | 19.44° C | 100% | 1005.4 hPa | 1.27 mm | - | - | - |
| 1788538235 | 19.44° C | 100% | 1005.4 hPa | 2.79 mm | - | - | - |
| 1788537917 | 19.44° C | 100% | 1005.5 hPa | 4.06 mm | - | - | - |
| 1788537617 | 19.44° C | 100% | 1005.5 hPa | 4.32 mm | - | - | - |
| 1788537317 | 19.44° C | 100% | 1005.5 hPa | 4.32 mm | - | - | - |
| 1788537017 | 19.44° C | 100% | 1005.6 hPa | 4.32 mm | - | - | - |
| 1788536745 | 19.44° C | 100% | 1005.6 hPa | 4.32 mm | - | - | - |
| 1788536417 | 19.44° C | 100% | 1005.7 hPa | 4.32 mm | - | - | - |
| 1788536117 | 19.44° C | 100% | 1005.8 hPa | 4.32 mm | - | - | - |
| 1788535817 | 19.44° C | 100% | 1005.8 hPa | 4.32 mm | - | - | - |
| 1788535517 | 19.44° C | 100% | 1005.9 hPa | 4.06 mm | - | - | - |
| 1788535222 | 18.89° C | 100% | 1005.9 hPa | 4.06 mm | - | - | - |
| 1788534917 | 18.89° C | 100% | 1006 hPa | 3.81 mm | - | - | - |
| 1788534617 | 18.89° C | 100% | 1006.2 hPa | 2.54 mm | - | - | - |
| 1788534317 | 18.89° C | 100% | 1006.3 hPa | 1.52 mm | - | - | - |
| 1788534017 | 19.44° C | 100% | 1006.2 hPa | 1.52 mm | - | - | - |
| 1788533717 | 19.44° C | 100% | 1006.1 hPa | 1.52 mm | - | - | - |
| 1788533417 | 18.89° C | 100% | 1006.2 hPa | 1.52 mm | - | - | - |
| 1788533117 | 19.44° C | 100% | 1006.3 hPa | 2.03 mm | - | - | - |
| 1788532817 | 19.44° C | 100% | 1006.3 hPa | 2.29 mm | - | - | - |
| 1788532517 | 19.44° C | 100% | 1006.5 hPa | 3.3 mm | - | - | - |
| 1788532217 | 19.44° C | 100% | 1006.7 hPa | 4.83 mm | - | - | - |
| 1788531917 | 19.44° C | 100% | 1006.8 hPa | 5.08 mm | - | - | - |
| 1788531617 | 19.44° C | 100% | 1006.9 hPa | 5.08 mm | - | - | - |
| 1788531317 | 19.44° C | 100% | 1006.9 hPa | 5.08 mm | - | - | - |
* Rain latest hour (hover to see other rain measurements)
** Current wind speed in m/s (hover to see current wind gust speed)